Orbital elements:
2016 VB4                                                 Earth MOID = 0.0093 AU
Epoch 2016 July 31.0 TT = JDT 2457600.5                 MPC
M 333.53574              (2000.0)            P               Q
n   0.60016568     Peri.  261.19619     +0.62860933     +0.77391172
a   1.3919446      Node    48.04213     -0.66672053     +0.58714831
e   0.5580264      Incl.    5.93428     -0.40041735     +0.23731313
P   1.64           H   23.9           G   0.15           U   7
Residuals in seconds of arc
161108 T05  0.1-  0.2+    161109 203  0.3+  0.0     161109 T05  0.6-  0.4+
161108 T05  0.7+  0.1+    161109 926  0.0   0.3+    161109 T05  0.2-  0.1-
161108 T05  0.3+  0.1-    161109 Y00  0.6+  0.3-    161109 T05  0.4-  0.2+
161108 T05  0.4+  0.0     161109 926  0.0   0.2+    161109 Q62  0.0   0.2-
161108 204  0.3+  0.1+    161109 Y00  0.7+  0.0     161109 Q62  0.5+  0.1+
161108 204  0.2+  0.1+    161109 926  0.0   0.3+    161109 Q62  0.2+  0.4+
161108 204  0.0   0.1+    161109 Y00  0.8+  0.5-    161109 T05  0.4-  0.8+
161108 204  0.1+  0.0     161109 Y00  0.3+  0.5+    161109 T05  0.6-  0.1+
161108 204  0.2+  0.1+    161109 Y00  0.4+  0.1-    161109 J95  0.2-  0.3-
161108 B49  0.8+  0.3-    161109 Y00  0.8+  0.2-    161109 J95  0.2+  0.3-
161108 B49  0.5+  0.1-    161109 H21  0.3+  0.4-    161109 J95  0.4+  0.0
161108 B49  0.3+  0.1-    161109 H21  0.3+  0.3-    161109 Z80  0.2+  0.7+
161108 I57  1.3-  0.6+    161109 H21  0.3+  0.3-    161109 Z80  0.3-  0.1-
161108 I57  1.1-  0.3+    161109 H21  0.3+  0.3-    161109 Z80  0.4+  0.3-
161108 I57  0.8-  0.8+    161109 H21  0.4+  0.4-    161110 703  0.2-  0.1-
161108 K38  0.7-  0.7-    161109 926  0.5-  0.5+    161110 703  0.1-  0.4-
161108 K38  0.7-  0.7-    161109 H21  0.2+  0.4-    161110 703  0.4-  0.3-
161108 K38  0.6-  0.8-    161109 926  0.9-  0.4+    161110 926  0.2-  0.2+
161108 K38  0.7-  0.6-    161109 H21  0.3+  0.3-    161110 926  0.2-  0.0
161108 K38  0.5-  0.7-    161109 926  0.1-  0.4+    161110 926  0.2-  0.0
161108 K38  0.6-  0.8-    161109 718  0.6-  0.0     161110 718  0.0   1.1+
161109 K63  0.7-  0.7+    161109 718  0.1-  0.0     161110 718  0.1+  0.6+
161109 K63  0.2-  1.1+    161109 718  0.2-  0.3-    161110 718  0.3+  0.1+
161109 203  0.1+  0.1+    161109 718  0.4-  0.2+    161110 718  0.3-  0.2+
161109 K63  0.9+  0.8+    161109 718  0.3-  0.0     161110 718  0.1-  0.3+
161109 203  0.2+  0.1+    161109 H06  0.1+  0.3-
161109 K63 (1.1-  1.8+)   161109 H06  0.0   0.0

Ephemeris:
2016 VB4                 a,e,i = 1.39, 0.56, 6                   q = 0.6152
Date    TT    R. A. (2000) Decl.     Delta      r     Elong.  Phase     V
2016 10 11    14 09 06.8 -23 48 58   0.2692  0.7569    22.6   149.5    28.8
...
2016 10 26    14 01 04.7 -27 46 17   0.1015  0.8966    15.3   162.9    30.8
...
2016 11 03    12 38 17.2 -42 47 15   0.02155 0.9749    37.1   142.1    22.7
...
2016 11 09    02 54 05.8 +13 19 13   0.04312 1.0335   176.4     3.5    17.5
2016 11 10    02 47 30.2 +15 20 49   0.05310 1.0432   176.2     3.6    18.0
2016 11 11    02 42 56.8 +16 43 29   0.06318 1.0529   174.6     5.1    18.4
...
2016 11 17    02 31 22.1 +20 13 16   0.1250  1.1105   166.2    12.3    20.3
...
2016 11 25    02 28 05.4 +21 35 36   0.2112  1.1853   157.8    18.4    21.8
...
2016 12 10    02 32 24.6 +22 31 21   0.3876  1.3186   144.1    25.9    23.6

A. U. Tomatic                (C) Copyright 2016 MPC           M.P.E.C. 2016-V98




More information about the Iaude mailing list